Theta_e
320 323 325 322 319 316 318 318 317 317 316 318 318 319 318 317 317 317 317 317 317 317 316 314 313 313 314 314 316 316 317 318 325 335 339 338 338 338 337 338 338 336 335 334
320 324 319 320 319 318 318 317 318 319 315 317 317 318 317 317 317 315 314 315 315 314 313 311 310 309 310 311 313 314 315 316 318 325 333 337 338 338 338 335 335 335 335 333
321 321 319 319 320 319 319 318 320 319 315 313 315 318 315 311 310 310 309 309 309 310 312 314 314 312 311 311 310 310 311 313 314 316 324 332 334 336 336 335 334 334 334 334
315 319 320 320 320 319 322 320 318 318 320 321 313 318 315 310 312 312 312 312 312 313 314 314 314 314 313 313 313 312 310 310 311 313 316 325 332 333 333 332 333 335 333 332
317 318 323 322 320 320 322 318 316 315 317 318 316 318 313 310 312 313 313 313 314 314 315 316 315 314 315 314 313 313 312 312 310 310 312 317 327 329 330 331 332 333 334 331
316 316 317 316 315 318 312 314 312 313 316 323 316 315 312 311 312 313 313 314 313 315 316 316 315 315 315 314 314 314 314 314 312 312 311 313 318 326 329 331 332 333 333 332
315 314 314 314 313 313 315 319 323 322 325 323 310 313 313 310 311 312 313 313 313 314 316 316 316 315 314 314 313 313 313 313 313 313 312 312 312 317 326 328 330 331 332 331
321 320 314 313 316 317 318 319 323 320 317 314 309 313 312 309 309 309 309 311 311 313 316 316 315 314 313 312 312 312 312 312 312 313 313 313 313 314 314 318 324 327 328 329
320 318 312 311 311 315 314 320 310 313 309 314 312 311 309 307 309 309 312 313 314 314 317 315 314 313 312 312 311 310 310 310 311 311 313 314 314 315 315 315 315 318 322 324
313 318 312 310 311 311 314 310 317 316 318 316 310 309 311 310 311 310 313 314 314 315 317 314 313 312 311 311 309 309 309 310 310 311 312 313 314 314 314 316 317 317 317 319
312 315 315 313 315 315 313 314 311 312 310 311 308 309 307 311 311 310 312 312 313 316 316 312 311 309 311 310 307 307 307 307 307 308 309 311 312 312 312 311 312 313 315 317
311 315 317 315 309 309 311 313 311 317 315 312 312 310 309 309 309 309 312 312 314 315 313 309 308 307 309 307 306 306 305 305 305 305 307 308 309 310 311 311 311 311 312 312
311 314 316 314 312 310 312 311 309 308 311 314 313 312 308 309 309 311 312 313 315 314 309 307 306 306 307 305 304 303 303 302 302 302 304 305 305 306 305 304 306 306 307 308
309 310 313 315 314 313 314 312 309 314 317 312 311 311 311 310 311 312 313 314 315 311 306 304 306 306 304 302 301 300 300 300 300 300 300 300 300 300 299 298 300 301 301 301
311 315 310 309 310 310 311 312 310 311 313 317 310 310 310 310 312 311 312 315 313 307 305 303 303 303 302 300 300 299 299 299 299 299 298 297 296 295 296 296 296 296 296 296
309 314 310 311 309 309 311 311 311 310 311 310 311 313 311 311 311 312 314 314 311 306 303 301 300 300 300 300 299 299 298 298 297 297 296 295 294 294 293 293 294 294 294 294
311 312 313 314 309 310 314 311 311 311 310 311 313 312 311 312 312 313 315 311 307 303 301 300 298 298 298 298 298 299 297 296 297 297 296 295 294 292 292 292 293 293 294 294
310 312 312 314 310 316 311 309 310 310 310 310 310 311 311 311 312 313 310 308 304 302 300 299 298 297 297 297 298 296 296 296 296 295 295 294 292 292 292 292 292 292 292 292
309 312 313 315 313 311 312 310 310 311 313 310 310 311 312 313 313 315 307 302 302 300 299 298 296 295 296 296 295 295 295 295 295 293 293 292 292 291 291 291 291 291 292 291
309 310 313 312 313 313 314 314 312 310 323 314 311 313 314 313 318 320 307 301 300 299 298 298 297 295 295 295 296 295 294 294 293 293 292 292 292 292 291 291 291 291 290 290
314 313 314 313 311 311 309 308 313 323 320 313 313 314 312 314 314 310 304 301 298 299 298 297 296 296 295 295 295 294 293 292 292 292 292 292 292 292 291 291 291 291 290 289
313 313 314 313 312 312 307 314 317 315 313 312 312 311 311 310 309 307 304 300 298 298 297 297 297 295 294 294 293 293 292 292 292 292 292 292 291 291 291 290 288 286 285 285
313 311 312 311 311 308 308 309 310 310 311 311 310 309 308 307 308 307 305 300 298 298 298 297 296 294 293 292 293 292 291 292 292 292 291 291 288 287 286 285 285 285 285 285
311 310 312 313 312 310 309 311 310 308 309 309 308 307 306 307 307 307 306 302 299 297 297 297 297 296 294 294 293 293 292 293 292 290 288 286 285 285 285 285 285 285 285 285
312 311 313 313 313 312 310 309 307 307 306 306 305 305 305 305 306 306 306 303 300 297 296 297 298 297 294 293 293 292 293 291 289 287 286 285 285 285 284 283 283 283 282 282
310 312 314 314 312 312 312 309 305 306 305 303 303 304 304 304 306 304 305 303 300 297 296 296 298 297 295 295 294 292 290 288 287 286 285 285 285 286 286 286 286 285 284 283
Wind_Speed
19 6 18 24 19 3 10 16 9 8 5 6 11 10 11 12 13 14 15 15 14 12 9 11 11 11 13 14 15 17 18 20 23 23 22 24 25 32 29 28 25 25 24 25
8 13 15 16 13 7 14 14 10 6 5 5 4 8 13 13 12 9 11 11 10 7 4 4 7 7 7 11 14 16 18 19 21 24 24 26 25 24 27 26 30 31 27 28
5 7 15 18 16 13 9 12 11 4 6 2 5 6 5 4 6 4 3 2 3 4 6 7 9 8 6 5 5 10 13 16 18 20 22 23 24 21 19 25 30 32 36 32
1 3 18 19 18 16 12 5 8 7 5 3 3 3 3 9 9 9 9 9 9 8 8 8 9 11 10 9 8 6 5 9 14 16 20 25 26 26 26 27 25 26 27 34
4 6 15 20 20 15 6 9 8 5 3 2 4 4 7 10 8 7 8 7 7 6 7 8 8 8 9 9 8 8 7 5 5 10 16 21 24 25 24 24 26 26 25 29
7 4 4 2 7 6 15 10 8 4 1 3 3 4 7 9 10 7 7 6 5 6 8 8 9 9 10 11 10 9 9 8 7 4 7 15 22 22 22 21 23 24 24 24
5 4 5 4 9 3 8 12 4 3 4 2 2 4 3 9 10 8 5 5 4 6 8 9 10 13 14 15 15 13 11 11 8 6 5 6 11 16 21 22 22 23 22 22
2 4 2 3 2 9 10 3 2 4 4 3 2 5 3 9 7 4 2 2 2 4 7 8 10 12 13 15 16 15 13 13 10 9 7 6 6 9 12 17 20 22 21 22
4 4 2 3 4 6 4 4 2 4 2 1 3 3 4 5 9 5 3 1 4 4 6 6 8 10 13 15 15 14 13 12 10 9 8 8 8 8 10 13 14 17 18 21
3 6 3 4 1 10 1 8 2 0 4 4 4 3 3 14 13 3 4 5 5 4 7 7 7 9 10 10 12 11 11 10 10 8 7 7 7 8 9 10 12 14 16 17
5 3 3 2 1 7 4 3 2 2 1 2 1 3 0 15 12 2 6 6 7 6 7 8 7 8 8 8 10 11 11 11 11 11 10 9 9 9 10 10 11 12 13 12
1 4 4 2 2 2 1 2 4 2 4 0 3 3 3 7 4 4 7 5 4 5 6 6 7 7 7 9 10 10 11 12 13 13 11 10 10 9 9 10 11 11 10 9
6 4 5 5 3 1 4 4 2 5 2 5 3 4 3 5 3 5 7 7 5 5 6 6 6 5 6 7 9 11 12 12 13 12 12 11 12 12 12 11 10 9 8 7
3 2 1 2 3 3 4 8 9 4 3 4 4 0 6 4 5 7 7 6 6 6 6 7 6 4 6 7 7 8 12 12 11 12 12 14 14 12 11 11 9 7 6 5
1 3 2 1 3 2 1 5 11 7 4 5 2 6 5 10 8 8 9 4 4 5 5 6 6 4 5 6 8 11 12 10 12 11 12 12 13 14 14 13 11 10 9 8
2 3 2 1 1 4 5 8 10 14 14 13 12 17 13 4 4 7 4 4 3 5 5 4 3 3 4 6 7 7 7 9 10 10 11 12 12 13 13 12 12 12 13 12
3 5 2 1 0 3 7 15 16 9 9 13 10 8 4 9 7 6 3 1 3 3 3 2 3 4 5 5 5 7 7 8 9 8 9 11 10 12 13 14 17 20 20 20
6 5 1 0 2 4 3 2 5 17 10 13 8 11 11 9 7 2 2 2 1 2 1 2 3 3 4 4 5 7 6 7 7 7 8 10 11 13 14 17 19 21 21 21
2 4 2 2 3 5 2 4 6 8 7 16 14 12 8 5 3 5 6 1 1 1 1 1 2 2 2 4 5 6 8 7 9 9 10 11 15 15 16 18 19 20 22 23
4 3 2 2 3 3 3 3 3 3 3 3 8 7 5 3 3 2 6 3 2 2 2 1 2 2 2 4 4 7 9 8 10 9 11 13 15 16 16 17 19 21 23 24
4 2 7 6 4 5 5 4 1 2 3 1 4 4 4 4 2 5 7 4 3 2 3 4 4 3 3 4 6 10 11 11 10 11 14 16 16 18 18 18 18 18 18 18
8 5 4 4 4 6 3 4 3 3 3 5 2 3 5 6 2 4 6 7 6 5 5 6 5 5 4 6 8 10 12 9 11 14 16 15 15 16 15 14 13 11 10 11
4 4 2 5 3 2 1 2 3 2 1 3 3 2 3 6 4 7 8 8 8 9 7 8 9 7 6 7 8 10 10 13 13 15 14 13 11 10 9 9 9 8 7 7
5 6 3 2 5 9 6 2 3 2 4 7 5 4 4 5 4 7 8 8 8 10 10 11 12 11 9 9 10 11 13 14 13 12 10 9 9 8 7 7 6 6 5 5
2 8 8 8 8 6 1 5 2 5 4 4 4 4 4 4 5 6 8 9 11 12 12 12 12 13 12 11 11 11 13 12 12 11 10 9 8 7 7 7 6 5 5 4
5 8 6 5 4 3 4 3 3 3 4 5 5 7 4 4 5 7 9 12 14 14 14 13 13 13 14 13 12 11 12 12 12 11 9 8 7 6 6 7 8 9 8 6
Wind_Direction
192 211 186 187 194 313 170 190 189 206 142 208 230 244 251 259 263 261 264 267 269 269 284 280 282 276 268 258 249 243 241 235 234 230 228 227 225 236 232 231 231 227 227 225
166 209 204 182 179 161 175 179 188 123 156 222 199 254 252 259 266 286 280 270 275 285 285 318 310 294 270 260 253 249 244 241 236 233 231 231 234 239 239 239 235 231 227 226
222 180 183 179 181 184 184 187 168 157 149 120 282 241 171 103 88 88 61 171 92 70 55 44 48 42 35 7 293 259 252 248 244 239 239 238 237 237 237 236 239 236 236 227
316 210 175 183 182 176 171 157 142 133 183 216 304 175 114 135 107 83 83 82 83 72 64 52 45 46 41 28 17 4 288 259 251 243 238 234 232 234 236 239 240 241 238 235
201 131 187 184 187 188 122 142 117 111 110 304 180 238 122 161 130 90 74 77 76 55 35 30 28 25 23 13 8 11 11 6 296 248 236 238 241 244 248 247 245 245 242 242
57 82 46 83 41 139 135 114 77 72 100 233 159 253 163 171 149 105 83 71 69 40 26 18 14 6 6 4 359 350 350 353 357 343 255 242 243 245 247 248 248 248 246 241
89 56 90 103 78 16 141 151 135 177 197 245 124 209 52 145 147 94 62 49 43 24 17 9 6 358 353 347 342 337 330 325 327 332 320 274 257 255 256 255 254 255 253 245
85 112 35 297 127 151 154 228 216 181 189 139 151 228 131 140 163 182 354 332 331 12 8 1 0 354 349 342 337 329 323 317 314 313 308 301 286 272 263 256 256 258 258 256
138 84 78 96 130 145 171 211 42 104 78 246 185 218 235 196 172 200 14 19 35 18 4 356 353 356 350 350 349 341 329 323 323 313 308 304 298 286 278 274 265 257 256 254
129 110 48 155 155 53 213 131 150 336 179 226 184 242 160 167 173 175 13 16 8 354 358 355 355 356 351 351 355 1 1 357 357 353 343 329 321 316 306 298 290 282 274 268
122 90 128 174 188 168 148 185 63 93 321 268 188 131 11 166 171 88 346 351 352 351 356 354 349 348 353 357 4 4 8 5 1 357 351 346 341 336 326 317 309 297 289 276
53 101 136 92 40 318 290 199 197 218 169 14 332 100 136 168 178 241 325 347 356 3 0 353 342 351 4 7 8 5 9 6 358 352 348 344 342 341 337 333 327 319 311 299
168 137 140 159 184 193 219 197 147 94 72 196 223 120 135 160 220 323 328 333 350 351 2 1 358 7 18 17 13 7 6 2 359 1 1 2 357 4 3 358 355 350 338 331
97 101 325 133 92 115 190 190 188 169 181 159 233 82 180 207 308 328 331 343 343 356 0 7 359 5 30 22 12 5 16 1 5 14 19 15 7 10 18 19 20 18 28 45
67 104 77 62 82 124 229 203 195 206 188 209 115 230 274 302 314 321 319 327 333 347 357 5 8 2 25 18 5 19 15 3 14 20 31 24 19 24 28 33 35 46 55 70
30 108 94 100 173 220 250 232 216 222 229 247 260 283 288 315 333 304 301 301 339 353 352 356 11 11 25 17 15 19 12 19 21 23 34 31 34 39 43 44 56 69 76 91
127 140 156 171 342 270 262 230 208 205 211 223 223 234 284 301 319 319 320 356 345 331 331 354 21 19 16 4 9 33 25 30 30 25 40 51 49 54 57 66 74 77 78 87
147 115 123 175 213 234 76 121 224 214 212 217 241 259 282 308 306 267 195 233 276 316 323 14 8 15 18 8 40 49 43 48 46 45 51 61 68 74 78 85 89 95 98 96
186 146 126 251 239 310 181 174 153 176 216 220 231 259 289 306 285 220 199 167 306 169 94 63 40 33 38 30 52 69 64 61 62 56 63 75 86 90 92 92 96 100 104 102
90 102 224 172 271 248 58 83 201 229 145 169 204 241 277 285 247 143 159 166 188 127 115 140 119 80 65 57 76 90 81 73 65 61 75 87 96 98 98 100 101 105 104 102
166 170 219 227 259 274 246 250 158 204 105 142 218 260 251 252 312 115 137 151 176 129 132 126 117 102 89 96 105 99 89 77 85 88 94 95 100 105 107 108 108 109 106 102
192 190 191 202 221 254 149 143 197 352 306 281 263 269 265 276 256 177 160 170 173 140 146 137 130 121 110 111 115 106 100 107 105 106 104 104 106 108 109 108 107 104 103 99
209 216 210 223 228 62 147 54 16 340 20 19 311 294 279 277 240 199 185 174 167 155 157 146 137 127 121 132 140 128 123 125 122 117 111 108 104 105 107 109 111 106 102 99
218 190 241 244 216 233 248 116 103 22 332 321 295 283 255 263 252 205 185 175 170 164 166 154 146 142 137 141 139 137 139 136 133 125 119 114 109 106 100 96 93 93 89 88
196 162 217 245 258 270 271 148 22 353 9 6 335 283 274 257 243 216 199 188 180 174 175 170 166 155 151 153 152 153 151 146 142 133 129 126 122 115 101 85 76 79 71 79
199 214 209 242 212 240 160 135 334 330 2 343 320 310 295 264 255 211 207 194 183 181 174 179 177 167 164 166 164 163 165 162 152 143 142 141 135 128 116 110 94 77 87 81